Presure
182 161 172 130 200 185 161 176 179 185 176 197 172 168 171 191 181 188 188 170 178 183 184 179 176 172 161 164 166 160 162 171 172 171 176 172 173 170 171 200 180 193 196 204
172 183 172 187 186 193 182 182 174 164 189 189 181 183 167 178 177 186 175 176 175 180 177 175 180 186 176 172 173 161 171 177 175 181 170 198 171 172 172 183 191 191 203 202
176 167 165 182 181 189 186 179 181 180 186 185 183 186 181 173 178 175 180 172 169 177 175 180 181 177 182 152 173 180 172 173 183 164 195 173 180 177 188 192 203 194 198 196
145 193 179 176 171 169 183 184 182 155 182 182 187 180 179 171 179 186 181 180 173 177 179 187 181 181 181 177 179 185 188 174 163 165 168 184 174 179 180 181 190 189 202 197
169 183 192 180 170 177 183 183 175 176 170 169 184 181 170 175 179 181 185 182 174 174 170 171 176 176 182 185 181 181 184 189 171 165 194 178 172 181 192 193 197 195 204 225
191 189 173 182 187 188 194 187 177 181 168 181 186 190 185 156 180 175 161 174 171 178 182 190 185 183 169 180 186 190 187 187 191 191 195 193 176 179 182 191 194 216 216 220
182 188 189 192 190 164 182 175 181 179 180 183 151 182 170 104 167 190 187 185 182 189 187 185 178 167 149 191 185 175 191 189 171 185 173 192 186 185 190 195 209 220 243 253
184 191 172 170 185 186 191 184 190 189 183 185 193 196 193 190 156 185 177 192 195 182 181 192 190 190 184 178 187 172 196 176 187 183 185 179 185 187 199 208 218 246 245 254
183 171 182 191 162 181 175 177 188 185 182 187 184 168 160 163 145 189 189 185 186 148 191 188 175 186 171 201 191 195 194 190 165 184 193 173 183 191 204 236 235 241 250 271
186 208 191 198 190 187 187 178 178 178 191 187 190 193 185 184 183 186 189 196 194 190 181 191 186 187 195 186 197 172 198 204 174 176 185 197 216 209 228 233 241 253 258 286
191 210 196 183 184 183 174 176 186 188 191 182 185 162 179 171 169 173 204 199 200 197 199 198 191 193 191 181 191 178 178 190 187 183 186 211 223 218 229 241 254 262 280 293
208 213 204 192 212 185 186 175 191 179 185 187 183 181 169 172 178 181 206 196 156 83 174 87 180 200 192 196 192 186 189 191 186 220 216 215 216 238 242 253 253 274 294 308
198 201 208 209 213 213 190 182 187 201 186 176 182 177 171 194 190 104 90 173 177 179 185 182 186 198 193 193 192 189 191 231 209 198 236 232 235 239 242 259 267 171 297 353
196 195 194 205 208 212 232 217 228 202 181 227 186 183 80 149 201 239 194 238 195 190 197 186 189 190 199 212 196 216 196 211 230 225 233 239 234 242 256 256 292 295 349 355
226 224 227 210 209 200 214 217 235 228 230 221 185 216 200 216 182 219 239 215 228 200 192 213 220 211 189 206 205 201 220 233 229 226 238 243 253 252 259 291 292 316 361 331
257 249 237 226 243 216 211 223 221 227 211 231 222 198 178 226 216 217 193 173 145 186 204 240 218 211 189 227 221 220 224 231 241 254 250 244 251 282 216 290 306 366 333 307
284 267 258 245 241 220 222 223 163 219 224 223 220 234 220 159 219 214 211 233 180 207 97 194 219 220 217 219 224 224 236 263 265 264 256 255 171 281 291 304 368 336 307 297
312 279 264 255 246 233 232 236 226 219 235 209 212 218 218 221 207 219 212 145 213 206 214 217 217 222 219 224 227 260 271 261 257 267 278 153 233 291 308 366 333 307 297 295
307 304 302 294 252 250 245 234 236 242 237 229 228 218 217 219 221 227 224 219 221 228 230 225 226 226 224 252 275 282 266 269 269 264 243 273 289 304 360 327 310 298 294 284
320 325 337 307 277 279 263 251 253 243 242 239 241 251 255 255 298 302 294 291 274 260 252 290 291 274 267 277 277 269 277 259 158 278 281 300 302 356 315 297 293 283 280 273
315 315 319 336 334 331 313 280 276 277 263 279 277 293 295 297 304 312 316 195 106 291 306 256 288 274 282 273 266 271 268 273 272 277 294 305 357 316 297 288 280 268 268 264
208 331 341 323 291 334 306 296 293 289 286 284 296 292 299 292 306 308 311 302 294 295 293 286 275 286 276 274 277 271 279 277 277 301 310 359 318 298 284 275 265 263 259 276
286 159 340 308 322 326 331 345 325 307 308 311 307 302 297 310 315 304 302 296 290 284 286 292 282 277 282 280 272 277 285 285 311 321 355 316 296 279 271 263 259 259 289 326
337 320 307 294 305 306 216 314 338 320 347 340 328 311 299 296 294 298 300 299 295 286 288 275 285 286 277 280 283 296 307 319 345 337 311 293 278 268 260 256 262 300 321 313
291 307 232 304 287 301 306 310 308 310 313 315 317 315 314 307 299 297 296 294 292 296 297 295 291 288 292 311 326 349 343 345 331 304 289 277 266 257 254 263 294 311 300 290
280 295 301 287 199 259 296 320 321 316 300 307 318 314 311 312 312 317 317 319 319 323 329 336 339 360 358 333 338 332 342 339 304 287 274 267 255 253 256 274 313 302 288 288
Wind_Speed
111 94 107 77 102 107 86 107 100 96 95 85 79 64 71 69 68 65 60 60 68 72 67 63 61 58 61 59 60 61 58 62 60 59 63 65 67 69 71 87 80 85 83 82
99 104 107 110 108 94 89 101 97 83 93 92 71 82 64 73 72 70 63 64 68 75 71 72 72 70 63 62 64 64 67 71 68 75 64 86 71 76 77 85 89 89 92 90
113 100 102 107 107 99 97 102 99 97 96 93 87 79 79 71 72 78 73 64 66 74 79 82 81 74 76 68 75 76 71 71 80 66 87 72 79 80 88 92 96 95 97 94
85 98 110 109 105 102 100 99 98 86 97 91 89 87 84 80 83 80 81 76 68 78 81 83 77 80 80 74 78 82 83 71 68 67 71 84 79 85 86 89 96 96 107 102
99 107 106 105 108 107 101 104 99 100 90 85 95 86 84 83 86 88 84 82 82 81 79 74 78 78 86 86 82 80 85 90 72 75 95 82 81 88 99 101 104 105 110 113
103 104 111 113 105 104 96 102 106 105 88 91 96 100 86 67 93 77 76 83 82 86 88 89 91 93 85 86 92 93 91 89 94 94 98 98 86 91 97 104 108 115 113 113
106 104 104 104 104 99 106 107 108 101 102 93 85 97 78 34 87 97 94 91 89 93 91 91 87 79 79 97 95 84 94 93 78 90 82 96 98 101 107 108 116 115 112 113
111 102 110 103 106 108 105 109 106 108 106 104 101 92 86 91 78 97 89 99 97 91 89 96 96 98 95 88 96 83 98 83 95 93 96 92 102 104 112 117 116 115 113 116
114 97 111 105 99 115 110 106 108 115 109 105 99 78 68 76 80 99 99 99 100 76 100 95 81 98 83 102 102 102 101 100 75 98 105 93 100 109 115 118 116 115 115 114
114 111 109 107 112 109 111 116 115 107 113 112 103 102 96 95 95 98 102 101 102 102 97 102 100 104 107 101 106 83 102 104 87 87 102 111 115 116 115 118 120 118 118 108
116 119 108 112 109 107 113 113 118 116 115 111 109 82 103 93 87 85 98 102 101 104 104 103 105 108 107 98 102 89 93 106 110 103 103 114 117 112 118 121 121 119 115 100
127 128 110 106 111 116 115 111 112 117 116 118 102 104 103 98 101 98 100 105 76 30 85 26 95 109 106 112 112 109 110 113 111 117 117 115 114 122 122 122 112 118 99 98
134 135 131 119 119 111 116 117 116 119 117 110 113 107 103 105 96 43 32 87 98 98 104 103 106 113 111 115 116 109 117 116 115 108 123 124 126 123 121 123 124 53 99 77
132 127 119 121 126 116 125 117 115 120 120 107 120 117 20 78 110 100 116 102 106 114 116 108 111 114 115 118 118 116 110 117 125 122 127 128 120 125 124 122 105 98 81 58
133 137 137 129 132 106 130 124 117 118 114 112 93 113 110 111 110 106 99 106 100 115 116 111 111 114 108 111 118 103 122 132 129 125 135 132 130 126 127 106 95 94 55 45
124 125 130 133 120 133 123 121 118 119 107 114 119 109 104 108 108 109 114 74 76 109 112 107 108 114 107 121 122 123 126 139 136 127 130 126 125 117 70 96 92 53 46 40
106 110 115 121 122 133 126 121 71 119 119 119 120 111 113 61 109 107 103 109 85 108 32 110 114 112 113 118 128 130 139 130 117 114 122 121 52 100 94 89 49 45 40 36
88 104 110 114 123 129 125 123 124 122 119 109 117 122 118 113 105 115 114 64 118 110 129 125 116 127 123 128 131 127 107 112 115 110 101 40 71 93 86 45 42 39 36 32
76 83 94 103 121 127 132 129 133 129 128 125 130 120 120 122 128 131 131 123 126 133 134 134 138 137 124 117 101 97 104 105 99 100 82 92 89 84 45 41 37 35 32 32
61 61 64 84 103 109 118 131 133 133 133 135 134 138 133 127 114 105 109 111 121 124 126 96 94 113 115 98 96 99 93 88 45 94 92 89 82 45 41 39 35 34 33 35
49 51 54 56 66 74 78 104 113 111 120 109 113 102 100 96 92 86 83 51 28 77 78 72 83 96 90 94 95 95 92 94 89 91 90 81 46 40 37 34 34 36 37 39
39 48 48 56 53 67 78 84 90 95 96 101 97 97 92 92 86 82 78 79 80 80 82 82 87 81 87 90 92 88 90 87 86 88 78 42 36 35 33 34 37 40 42 43
55 31 39 39 43 47 58 73 82 91 93 93 93 90 91 88 82 78 75 75 77 80 83 80 79 85 88 87 81 86 87 86 81 71 39 35 32 32 34 37 40 42 42 17
43 41 34 39 40 44 42 40 41 43 47 64 77 77 78 78 76 73 67 67 71 74 78 77 81 80 80 83 85 86 81 73 43 36 32 31 29 32 35 38 40 36 21 17
51 42 40 27 40 34 38 44 50 50 49 52 54 57 61 65 67 67 68 71 74 76 76 76 77 80 82 81 70 48 47 42 34 30 30 28 30 34 36 36 33 22 20 21
39 41 40 39 35 48 50 45 40 41 50 49 48 54 58 58 60 62 64 65 64 65 64 60 58 51 44 52 45 42 38 32 30 29 29 29 32 34 33 32 25 23 24 24
Wind_Direction
271 267 273 279 276 278 282 282 284 283 285 287 288 290 294 290 290 289 295 292 294 295 297 289 289 287 279 282 284 280 283 288 286 286 294 291 294 288 290 299 297 300 300 302
270 273 274 276 279 277 277 279 283 281 282 285 284 292 284 292 294 294 293 294 295 294 294 292 290 291 287 287 287 281 287 289 291 294 290 293 292 294 294 300 301 300 304 304
271 273 274 275 278 278 277 280 280 281 284 287 288 286 286 290 291 290 290 289 288 291 289 286 287 291 290 284 288 287 287 290 293 286 293 291 295 297 300 300 301 303 304 300
259 270 270 273 277 278 275 274 276 272 282 282 281 285 287 288 289 287 288 289 289 285 284 285 288 289 288 286 287 289 290 286 283 287 289 293 296 300 300 301 302 301 303 300
272 269 269 270 271 273 273 274 278 279 277 278 282 282 283 286 287 285 287 286 283 285 285 286 287 287 289 290 290 291 292 292 288 287 293 298 299 300 301 302 302 301 301 298
263 263 271 269 267 269 267 270 273 272 278 281 277 277 280 271 282 283 272 279 279 282 285 282 286 286 286 289 290 290 292 290 291 292 293 293 300 301 301 302 301 302 300 298
261 262 264 263 265 267 267 271 271 275 276 273 276 279 283 277 278 279 281 281 282 282 283 283 284 282 285 286 288 289 287 288 292 292 298 296 300 301 301 301 302 302 304 306
262 258 267 268 263 264 263 266 266 269 271 271 271 274 274 274 271 278 282 279 279 283 285 282 283 283 285 287 285 287 287 293 293 297 297 298 299 301 300 301 304 308 307 308
258 258 260 259 261 263 269 272 266 268 271 271 273 270 270 276 272 276 275 277 280 280 281 283 284 283 284 282 286 288 287 290 288 297 293 297 299 300 300 305 308 309 309 311
264 257 258 258 258 261 265 268 269 268 267 270 271 270 273 274 273 275 275 273 275 276 282 279 282 282 281 287 285 295 289 288 294 294 298 297 297 298 304 307 310 309 310 311
260 260 256 260 262 259 265 267 265 266 266 272 270 269 271 274 277 279 270 271 272 274 275 276 279 279 281 289 287 289 296 291 294 295 300 299 302 303 307 309 309 311 311 307
269 267 258 258 260 256 257 265 264 269 266 265 267 270 275 277 278 279 270 271 278 264 284 281 287 278 282 282 286 294 292 291 296 295 299 299 302 305 308 308 310 313 309 308
267 268 268 265 266 263 257 256 264 258 265 270 270 273 275 270 268 268 266 279 281 284 284 288 288 283 283 287 286 290 291 295 294 293 302 304 304 306 306 311 311 296 310 305
261 266 268 269 269 264 269 269 268 259 265 273 268 271 242 273 268 274 271 275 280 281 278 287 286 285 286 286 287 289 292 294 299 299 303 301 304 305 308 308 309 309 307 299
254 256 258 262 265 265 267 268 268 269 271 269 272 272 267 272 273 275 277 278 274 275 280 281 286 281 286 290 288 292 296 300 299 301 300 301 303 305 306 306 307 309 298 295
249 250 252 256 255 262 264 263 266 269 269 265 271 259 271 276 272 271 276 280 273 281 275 281 285 283 289 293 293 294 297 297 296 296 297 299 302 301 296 306 307 296 292 292
245 247 246 250 250 260 262 260 261 263 267 270 270 269 274 274 276 277 277 279 275 283 262 280 285 285 287 291 292 293 293 294 295 294 296 298 287 302 304 306 294 290 289 287
247 244 244 245 248 256 260 257 260 265 257 268 272 271 273 268 274 272 279 277 280 280 284 285 286 289 288 289 291 291 287 289 292 293 294 285 297 302 304 293 287 287 285 282
249 249 249 246 245 250 254 258 261 259 258 263 263 270 272 272 273 273 274 277 278 276 275 279 279 281 285 284 282 280 286 286 290 294 293 297 300 303 292 285 285 283 283 281
250 248 243 250 246 248 250 254 259 261 262 264 266 267 267 267 269 271 272 272 272 272 272 273 276 279 279 278 280 281 283 285 288 291 294 297 300 290 285 285 282 283 282 281
252 255 254 246 234 230 238 250 256 258 262 264 267 268 270 269 269 270 269 267 272 269 268 269 269 275 273 275 277 279 281 282 287 291 294 296 288 279 280 279 281 283 282 283
249 261 254 250 252 235 236 244 249 254 256 261 261 264 264 268 267 267 264 265 267 265 265 267 273 268 269 270 272 278 280 283 287 290 293 281 273 273 275 278 282 284 286 287
257 243 261 254 255 252 246 240 241 245 248 249 251 253 256 261 262 260 262 262 263 264 266 265 265 268 268 273 278 281 281 283 287 290 274 266 266 269 272 279 283 286 292 280
269 266 259 254 259 253 259 260 258 261 258 252 250 251 256 260 261 264 262 261 263 264 265 268 268 268 273 276 277 279 281 284 275 269 257 257 262 267 275 280 284 289 274 267
272 271 259 278 253 251 254 251 250 254 260 260 256 253 252 253 256 258 260 263 265 266 267 267 269 271 272 275 276 273 271 272 256 247 249 254 259 269 276 283 286 271 268 271
262 279 283 258 249 255 254 276 265 263 257 262 266 265 266 267 267 268 268 270 273 275 276 276 274 270 263 264 267 266 266 253 238 238 245 249 261 270 279 289 276 263 272 265